Time,TemperatureF,DewpointF,PressureIn,WindDirection,WindDirectionDegrees,WindSpeedMPH,WindSpeedGustMPH,Humidity,HourlyPrecipIn,Conditions,Clouds,dailyrainin,SoftwareType,DateUTC
2013-06-25 00:43:00,50.0,38.0,-100.00,West,274,13.0,21.0,63,0.00,,,-99.99,,2013-06-25 06:43:00,
2013-06-25 01:02:00,50.0,38.0,-100.00,West,272,15.0,21.0,64,0.00,,,-99.99,,2013-06-25 07:02:00,
2013-06-25 01:33:00,-999.0,-99.9,-100.00,West,265,19.0,27.0,-999,-99.99,,,-99.99,,2013-06-25 07:33:00,
2013-06-25 01:43:00,49.0,38.0,-100.00,West,261,17.0,24.0,66,0.00,,,-99.99,,2013-06-25 07:43:00,
2013-06-25 02:01:00,49.0,38.0,-100.00,WSW,256,21.0,29.0,66,0.00,,,-99.99,,2013-06-25 08:01:00,
2013-06-25 02:34:00,49.0,37.0,-100.00,West,265,20.0,31.0,63,0.00,,,-99.99,,2013-06-25 08:34:00,
2013-06-25 02:43:00,49.0,36.0,-100.00,West,261,24.0,37.0,62,0.00,,,-99.99,,2013-06-25 08:43:00,
2013-06-25 03:43:00,47.0,37.0,-100.00,West,261,20.0,30.0,67,0.00,,,-99.99,,2013-06-25 09:43:00,
2013-06-25 04:01:00,47.0,37.0,-100.00,West,272,18.0,28.0,69,0.00,,,-99.99,,2013-06-25 10:01:00,
2013-06-25 04:33:00,46.0,37.0,-100.00,West,272,19.0,26.0,69,0.00,,,-99.99,,2013-06-25 10:33:00,
2013-06-25 04:42:00,46.0,37.0,-100.00,West,270,21.0,29.0,69,0.00,,,-99.99,,2013-06-25 10:42:00,
2013-06-25 05:43:00,47.0,36.0,-100.00,West,263,26.0,34.0,67,0.00,,,-99.99,,2013-06-25 11:43:00,
2013-06-25 06:01:00,47.0,36.0,-100.00,West,263,21.0,34.0,67,0.00,,,-99.99,,2013-06-25 12:01:00,
2013-06-25 06:43:00,46.0,37.0,-100.00,West,264,18.0,29.0,70,0.00,,,-99.99,,2013-06-25 12:43:00,
2013-06-25 07:01:00,46.0,36.0,-100.00,West,261,18.0,29.0,69,0.00,,,-99.99,,2013-06-25 13:01:00,
2013-06-25 07:34:00,46.0,37.0,-100.00,West,260,17.0,27.0,70,0.00,,,-99.99,,2013-06-25 13:34:00,
2013-06-25 07:42:00,46.0,37.0,-100.00,West,267,13.0,24.0,71,0.00,,,-99.99,,2013-06-25 13:42:00,
2013-06-25 07:53:00,45.0,37.0,-100.00,West,267,14.0,22.0,73,0.00,,,-99.99,,2013-06-25 13:53:00,
2013-06-25 08:02:00,-999.0,-99.9,-100.00,WSW,258,17.0,31.0,-999,-99.99,,,-99.99,,2013-06-25 14:02:00,
2013-06-25 08:34:00,47.0,38.0,-100.00,West,263,17.0,26.0,70,0.00,,,-99.99,,2013-06-25 14:34:00,
2013-06-25 08:43:00,48.0,38.0,-100.00,West,264,14.0,23.0,70,-99.99,,,-99.99,,2013-06-25 14:43:00,
2013-06-25 09:44:00,49.0,38.0,-100.00,West,264,15.0,21.0,67,0.00,,,-99.99,,2013-06-25 15:44:00,
2013-06-25 09:53:00,-999.0,-99.9,-100.00,West,270,13.0,21.0,-999,-99.99,,,-99.99,,2013-06-25 15:53:00,
2013-06-25 10:03:00,50.0,38.0,-100.00,West,265,13.0,22.0,64,0.00,,,-99.99,,2013-06-25 16:03:00,
2013-06-25 10:44:00,51.0,34.0,-100.00,WSW,253,24.0,38.0,51,0.00,,,-99.99,,2013-06-25 16:44:00,
2013-06-25 11:11:00,52.0,32.0,-100.00,WSW,250,27.0,43.0,46,0.00,,,-99.99,,2013-06-25 17:11:00,
2013-06-25 11:44:00,52.0,33.0,-100.00,WSW,251,27.0,39.0,48,0.00,,,-99.99,,2013-06-25 17:44:00,
2013-06-25 12:02:00,52.0,34.0,-100.00,WSW,253,32.0,45.0,50,0.00,,,-99.99,,2013-06-25 18:02:00,
2013-06-25 12:44:00,52.0,30.0,-100.00,WSW,248,37.0,54.0,42,0.00,,,-99.99,,2013-06-25 18:44:00,
2013-06-25 13:44:00,56.0,32.0,-100.00,West,260,20.0,39.0,39,0.00,,,-99.99,,2013-06-25 19:44:00,
2013-06-25 14:01:00,56.0,31.0,-100.00,WSW,251,21.0,37.0,39,0.00,,,-99.99,,2013-06-25 20:01:00,
2013-06-25 14:42:00,58.0,31.0,-100.00,WSW,253,26.0,38.0,37,0.00,,,-99.99,,2013-06-25 20:42:00,
2013-06-25 15:11:00,-999.0,-99.9,-100.00,WSW,246,27.0,40.0,-999,-99.99,,,-99.99,,2013-06-25 21:11:00,
2013-06-25 15:43:00,60.0,30.0,-100.00,WSW,251,28.0,40.0,32,0.00,,,-99.99,,2013-06-25 21:43:00,
2013-06-25 15:53:00,60.0,32.0,-100.00,WSW,251,26.0,40.0,35,0.00,,,-99.99,,2013-06-25 21:53:00,
2013-06-25 16:01:00,61.0,31.0,-100.00,WSW,250,24.0,39.0,32,0.00,,,-99.99,,2013-06-25 22:01:00,
2013-06-25 16:11:00,-999.0,-99.9,-100.00,WSW,256,30.0,43.0,-999,-99.99,,,-99.99,,2013-06-25 22:11:00,
2013-06-25 16:42:00,59.0,33.0,-100.00,WSW,253,32.0,44.0,36,0.00,,,-99.99,,2013-06-25 22:42:00,
2013-06-25 17:43:00,61.0,34.0,-100.00,West,263,19.0,33.0,36,0.00,,,-99.99,,2013-06-25 23:43:00,
2013-06-25 17:52:00,63.0,34.0,-100.00,West,260,20.0,34.0,34,0.00,,,-99.99,,2013-06-25 23:52:00,
2013-06-25 18:42:00,59.0,34.0,-100.00,WSW,256,26.0,38.0,39,0.00,,,-99.99,,2013-06-26 00:42:00,
2013-06-25 19:01:00,58.0,34.0,-100.00,WSW,257,27.0,40.0,40,0.00,,,-99.99,,2013-06-26 01:01:00,
2013-06-25 19:43:00,58.0,35.0,-100.00,West,261,23.0,38.0,42,0.00,,,-99.99,,2013-06-26 01:43:00,
2013-06-25 19:52:00,56.0,35.0,-100.00,West,264,23.0,35.0,45,0.00,,,-99.99,,2013-06-26 01:52:00,
2013-06-25 20:02:00,56.0,35.0,-100.00,WSW,258,29.0,43.0,46,0.00,,,-99.99,,2013-06-26 02:02:00,
2013-06-25 20:22:00,-999.0,-99.9,-100.00,WSW,258,24.0,34.0,-999,-99.99,,,-99.99,,2013-06-26 02:22:00,
2013-06-25 20:34:00,54.0,37.0,-100.00,West,260,26.0,40.0,52,0.00,,,-99.99,,2013-06-26 02:34:00,
2013-06-25 20:43:00,54.0,38.0,-100.00,WSW,257,30.0,44.0,54,0.00,,,-99.99,,2013-06-26 02:43:00,
2013-06-25 21:02:00,53.0,39.0,-100.00,West,260,26.0,44.0,57,0.00,,,-99.99,,2013-06-26 03:02:00,
2013-06-25 21:43:00,50.0,41.0,-100.00,West,265,23.0,34.0,71,0.00,,,-99.99,,2013-06-26 03:43:00,
2013-06-25 22:43:00,52.0,39.0,-100.00,West,264,28.0,47.0,61,0.00,,,-99.99,,2013-06-26 04:43:00,
2013-06-25 23:02:00,53.0,39.0,-100.00,WSW,257,35.0,52.0,58,0.00,,,-99.99,,2013-06-26 05:02:00,
2013-06-25 23:34:00,53.0,39.0,-100.00,WSW,256,38.0,48.0,59,0.00,,,-99.99,,2013-06-26 05:34:00,
2013-06-25 23:43:00,53.0,39.0,-100.00,WSW,258,34.0,48.0,60,0.00,,,-99.99,,2013-06-26 05:43:00,
2013-06-25 23:52:00,-999.0,-99.9,-100.00,WSW,254,37.0,50.0,-999,-99.99,,,-99.99,,2013-06-26 05:52:00,